Regional Weather Roundup
Issued by NWS

Home | Current Version | Previous Version | Text Only | Print | Product List | Glossary On
Versions: 1 2 3 4 5 6 7 8 9 10 11 12 13 14 15 16 17 18 19 20 21 22 23 24 25 26 27 28 29 30 31 32 33 34 35 36 37 38 39 40 41 42 43 44 45 46 47 48 49 50
000
ASUS45 KBOI 230110
RWRID

IDAHO REGIONAL WEATHER ROUNDUP
NATIONAL WEATHER SERVICE BOISE ID
700 PM MDT FRI MAY 22 2015

NOTE: "FAIR" INDICATES FEW OR NO CLOUDS BELOW 12000 FEET
WITH NO SIGNIFICANT WEATHER AND/OR OBSTRUCTIONS TO VISIBILITY

IDZ012-014-230200-
SOUTHWEST IDAHO


CITY           SKY/WX    TMP DP  RH WIND       PRES   REMARKS
BOISE          CLOUDY    71  46  40 NE8       29.80F
CALDWELL       CLOUDY    73  45  35 CALM      29.80F
MOUNTAIN HOME  CLOUDY    69  47  45 NE6       29.80F HAZE
$$

IDZ016-017-230200-
SOUTHCENTRAL IDAHO


CITY           SKY/WX    TMP DP  RH WIND       PRES   REMARKS
BURLEY         PTSUNNY   58  46  64 CALM      29.85S
JEROME         CLOUDY    61  50  67 N8        29.85F
TWIN FALLS     PTSUNNY   61  50  67 E5        29.83S
$$

IDZ019>023-230200-
SOUTHEAST IDAHO


CITY           SKY/WX    TMP DP  RH WIND       PRES   REMARKS
IDAHO FALLS    CLOUDY    60  44  55 S10       29.86S
POCATELLO      PTSUNNY   62  43  49 S6        29.86F
REXBURG        CLOUDY    59  43  55 W6        29.87R
$$

IDZ006-010-011-018-031-032-230200-
CENTRAL IDAHO MOUNTAINS


CITY           SKY/WX    TMP DP  RH WIND       PRES   REMARKS
MCCALL         TSTM      45  41  86 S7        29.89R FOG
HAILEY         LGT RAIN  54  45  71 NW10      29.90R
STANLEY          N/A     53  44  71 CALM      29.93F
SALMON         CLOUDY    64  43  45 E13       29.86R
CHALLIS        PTSUNNY   62  40  44 N7        29.88F
$$

IDZ002-004-006-007-026-230200-
NORTHERN IDAHO


CITY           SKY/WX    TMP DP  RH WIND       PRES   REMARKS
LEWISTON       CLOUDY    69  50  50 CALM      29.77S
LOWELL           N/A     70  57  63 CALM      29.74S
COEUR D`ALENE  CLOUDY    75  48  38 SW7       29.77F
MULLAN PASS    CLOUDY    58  36  43 CALM      29.95F
$$


USA.gov is the U.S. government's official web portal to all federal, state and local government web resources and services.